FW7275 Weather Reports


Display with metric or nautical units.
time (UTC)temp
F
wind
direction
speed
MPH
gust
MPH
rain 1hr
in
rain 24hr
in
rain mn
in
humidity
%
barometer
mb
20260904081033 81 0 0.0 0.0 0.00 0.00 0.00 51
20260904080026 80 0 0.0 0.0 0.00 0.00 0.00 53
20260904075030 79 0 0.0 0.0 0.00 0.00 0.00 54
20260904074034 79 0 0.0 0.0 0.00 0.00 0.00 55
20260904073036 78 0 0.0 0.0 0.00 0.00 0.00 57
20260904071025 76 0 0.0 0.0 0.00 0.00 0.00 59
20260904070030 76 0 0.0 0.0 0.00 0.00 0.00 59
20260904065028 75 0 0.0 0.0 0.00 0.00 0.00 59
20260904064018 74 0 0.0 0.0 0.00 0.00 0.00 61
20260904063029 74 0 0.0 0.0 0.00 0.00 0.00 61
20260904062026 71 0 0.0 0.0 0.00 0.00 0.00 66
20260904061031 69 0 0.0 0.0 0.00 0.00 0.00 67
20260904060035 68 0 0.0 0.0 0.00 0.00 0.00 68
20260904055020 67 0 0.0 0.0 0.00 0.00 0.00 69
20260904054025 67 0 0.0 0.0 0.00 0.00 0.00 69
20260904053026 66 0 0.0 0.0 0.00 0.00 0.00 69
20260904051030 65 0 0.0 0.0 0.00 0.00 0.00 71
20260904045035 65 0 0.0 0.0 0.00 0.00 0.00 72
20260904044033 65 0 0.0 0.0 0.00 0.00 0.00 72
20260904043032 65 0 0.0 0.0 0.00 0.00 0.00 72
20260904042023 65 0 0.0 0.0 0.00 0.00 0.00 71
20260904040027 67 0 0.0 0.0 0.00 0.00 0.00 67
20260904035025 67 0 0.0 0.0 0.00 0.00 0.00 66
20260904034035 67 0 0.0 0.0 0.00 0.00 0.00 65
20260904032018 68 0 0.0 0.0 0.00 0.00 0.00 64
20260904031024 68 0 0.0 0.0 0.00 0.00 0.00 64
20260904030033 68 0 0.0 0.0 0.00 0.00 0.00 64
20260904025022 68 0 0.0 0.0 0.00 0.00 0.00 65
20260904024031 68 0 0.0 0.0 0.00 0.00 0.00 65
20260904023026 68 0 0.0 0.0 0.00 0.00 0.00 66
20260904022026 67 0 0.0 0.0 0.00 0.00 0.00 67
20260904021020 67 0 0.0 0.0 0.00 0.00 0.00 68
20260904020036 67 0 0.0 0.0 0.00 0.00 0.00 69
20260904015030 67 0 0.0 0.0 0.00 0.00 0.00 69
20260904014022 67 0 0.0 0.0 0.00 0.00 0.00 69
20260904013026 67 0 0.0 0.0 0.00 0.00 0.00 69
20260904012023 67 0 0.0 0.0 0.00 0.00 0.00 69
20260904011029 68 0 0.0 0.0 0.00 0.00 0.00 68
20260904010027 68 0 0.0 0.0 0.00 0.00 0.00 68
20260904005026 68 0 0.0 0.0 0.00 0.00 0.00 68
20260904004026 68 0 0.0 0.0 0.00 0.00 0.00 68
20260904003028 68 0 0.0 0.0 0.00 0.00 0.00 68
20260904002028 68 0 0.0 0.0 0.00 0.00 0.00 67
20260904001025 68 0 0.0 0.0 0.00 0.00 0.00 67
20260904000032 68 0 0.0 0.0 0.00 0.00 0.00 67
20260903235028 68 0 0.0 0.0 0.00 0.00 0.00 66
20260903234027 68 0 0.0 0.0 0.00 0.00 0.00 66
20260903232035 68 0 0.0 0.0 0.00 0.00 0.00 66
20260903231031 68 0 0.0 0.0 0.00 0.00 0.00 67
20260903224025 68 0 0.0 0.0 0.00 0.00 0.00 67
20260903223028 68 0 0.0 0.0 0.00 0.00 0.00 66
20260903222035 68 0 0.0 0.0 0.00 0.00 0.00 66
20260903221026 68 0 0.0 0.0 0.00 0.00 0.00 66
20260903220041 69 0 0.0 0.0 0.00 0.00 0.00 66
20260903215023 69 0 0.0 0.0 0.00 0.00 0.00 66
20260903214035 69 0 0.0 0.0 0.00 0.00 0.00 65
20260903212026 69 0 0.0 0.0 0.00 0.00 0.00 65
20260903211033 69 0 0.0 0.0 0.00 0.00 0.00 65
20260903210044 69 0 0.0 0.0 0.00 0.00 0.00 66
20260903205033 69 0 0.0 0.0 0.00 0.00 0.00 66
20260903204028 69 0 0.0 0.0 0.00 0.00 0.00 64
20260903203036 69 0 0.0 0.0 0.00 0.00 0.00 64
20260903202024 69 0 0.0 0.0 0.00 0.00 0.00 63
20260903201023 69 0 0.0 0.0 0.00 0.00 0.00 63
20260903200037 69 0 0.0 0.0 0.00 0.00 0.00 63
20260903195028 69 0 0.0 0.0 0.00 0.00 0.00 63
20260903194028 70 0 0.0 0.0 0.00 0.00 0.00 62
20260903193028 70 0 0.0 0.0 0.00 0.00 0.00 63
20260903192033 70 0 0.0 0.0 0.00 0.00 0.00 62
20260903191022 70 0 0.0 0.0 0.00 0.00 0.00 61
20260903190032 71 0 0.0 0.0 0.00 0.00 0.00 60
20260903185027 71 0 0.0 0.0 0.00 0.00 0.00 59
20260903184026 71 0 0.0 0.0 0.00 0.00 0.00 59
20260903183035 72 0 0.0 0.0 0.00 0.00 0.00 59
20260903181028 72 0 0.0 0.0 0.00 0.00 0.00 57
20260903180038 73 0 0.0 0.0 0.00 0.00 0.00 57
20260903175027 73 0 0.0 0.0 0.00 0.00 0.00 56
20260903174022 74 0 0.0 0.0 0.00 0.00 0.00 55
20260903173028 74 0 0.0 0.0 0.00 0.00 0.00 54
20260903172022 75 0 0.0 0.0 0.00 0.00 0.00 54
20260903171025 75 0 0.0 0.0 0.00 0.00 0.00 53
20260903165025 76 0 0.0 0.0 0.00 0.00 0.00 52
20260903164021 76 0 0.0 0.0 0.00 0.00 0.00 52
20260903162027 78 0 0.0 0.0 0.00 0.00 0.00 50
20260903161026 78 0 0.0 0.0 0.00 0.00 0.00 50
20260903160033 78 0 0.0 0.0 0.00 0.00 0.00 50
20260903155028 79 0 0.0 0.0 0.00 0.00 0.00 49
20260903154029 79 0 0.0 0.0 0.00 0.00 0.00 50
20260903152031 80 0 0.0 0.0 0.00 0.00 0.00 48
20260903151027 80 0 0.0 0.0 0.00 0.00 0.00 48
20260903150032 80 0 0.0 0.0 0.00 0.00 0.00 48
20260903145022 79 0 0.0 0.0 0.00 0.00 0.00 46
20260903143023 80 0 0.0 0.0 0.00 0.00 0.00 47
20260903142026 80 0 0.0 0.0 0.00 0.00 0.00 46
20260903141021 81 0 0.0 0.0 0.00 0.00 0.00 46
20260903140033 82 0 0.0 0.0 0.00 0.00 0.00 47
20260903135028 82 0 0.0 0.0 0.00 0.00 0.00 46
20260903134026 81 0 0.0 0.0 0.00 0.00 0.00 47
20260903133032 81 0 0.0 0.0 0.00 0.00 0.00 47
20260903132033 79 0 0.0 0.0 0.00 0.00 0.00 49
20260903131034 79 0 0.0 0.0 0.00 0.00 0.00 48
20260903130029 79 0 0.0 0.0 0.00 0.00 0.00 48
20260903125028 79 0 0.0 0.0 0.00 0.00 0.00 49
20260903123028 79 0 0.0 0.0 0.00 0.00 0.00 49
20260903122030 79 0 0.0 0.0 0.00 0.00 0.00 48
20260903121021 80 0 0.0 0.0 0.00 0.00 0.00 47
20260903120031 80 0 0.0 0.0 0.00 0.00 0.00 47
20260903114027 81 0 0.0 0.0 0.00 0.00 0.00 46
20260903113035 82 0 0.0 0.0 0.00 0.00 0.00 47
20260903112025 81 0 0.0 0.0 0.00 0.00 0.00 48
20260903105032 79 0 0.0 0.0 0.00 0.00 0.00 51
20260903104029 79 0 0.0 0.0 0.00 0.00 0.00 50
20260903103029 81 0 0.0 0.0 0.00 0.00 0.00 50
20260903102026 82 0 0.0 0.0 0.00 0.00 0.00 50
20260903101030 81 0 0.0 0.0 0.00 0.00 0.00 50
20260903100032 80 0 0.0 0.0 0.00 0.00 0.00 51
20260903095027 79 0 0.0 0.0 0.00 0.00 0.00 52
20260903094040 78 0 0.0 0.0 0.00 0.00 0.00 53
20260903093032 80 0 0.0 0.0 0.00 0.00 0.00 51
20260903092029 80 0 0.0 0.0 0.00 0.00 0.00 51
20260903091019 80 0 0.0 0.0 0.00 0.00 0.00 52
20260903085031 79 0 0.0 0.0 0.00 0.00 0.00 55
20260903083026 76 0 0.0 0.0 0.00 0.00 0.00 58